Weather reports worldwide

Advertisment
Satenas, Sweden (2520): temperature & dewpoint: 06.12.2019 16:00:00 - 12.12.2019 16:00:00 (CET)Satenas, Sweden (2520): water temperature: 06.12.2019 16:00:00 - 12.12.2019 16:00:00 (CET)Satenas, Sweden (2520): wind speed & gusts: 06.12.2019 16:00:00 - 12.12.2019 16:00:00 (CET)Satenas, Sweden (2520): wind direction: 06.12.2019 16:00:00 - 12.12.2019 16:00:00 (CET)Satenas, Sweden (2520): reduced air pressure: 06.12.2019 16:00:00 - 12.12.2019 16:00:00 (CET)Satenas, Sweden (2520): visibility: 06.12.2019 16:00:00 - 12.12.2019 16:00:00 (CET)Satenas, Sweden (2520): precipitation: 06.12.2019 16:00:00 - 12.12.2019 16:00:00 (CET)
Date & Time tt [°C] td [°C] tw [°C] ff [km/h] ff [kn] fx [km/h] fx [kn] dd ppp [hPa] vv [km] rr [mm]
12.12.2019 16:00:00 3,6 3,5 - 13 7 18 10 SSE 994,1 10 0,0
12.12.2019 15:00:00 3,8 3,8 - 11 6 18 10 SSE 994,4 10 0,0
12.12.2019 14:00:00 3,9 3,9 - 13 7 18 10 SSE 994,8 10 0,0
12.12.2019 13:00:00 3,8 3,8 - 13 7 18 10 SE 995,2 10 0,0
12.12.2019 12:00:00 3,6 3,6 - 11 6 14 8 SE 996,2 10 0,0
12.12.2019 11:00:00 3,4 3,4 - 11 6 18 10 SSE 996,9 10 0,0
12.12.2019 10:00:00 2,8 2,8 - 13 7 18 10 SE 997,5 10 0,0
12.12.2019 09:00:00 2,9 2,9 - 13 7 18 10 SE 997,6 10 0,0
12.12.2019 08:00:00 3,0 3,0 - 13 7 - - SSE - 10 -
12.12.2019 07:00:00 2,4 2,4 - 11 6 14 8 SE 998,2 10 0,0
12.12.2019 06:00:00 2,3 2,3 - 13 7 14 8 SSE 998,2 10 0,0
12.12.2019 05:00:00 2,4 2,4 - 13 7 18 10 SSE 998,9 10 0,0
12.12.2019 04:00:00 2,8 2,8 - 13 7 18 10 SSE 999,0 10 0,0
12.12.2019 03:00:00 3,0 3,0 - 11 6 18 10 SSE 999,6 10 0,0
12.12.2019 02:00:00 3,3 3,3 - 15 8 18 10 SSE 999,9 10 0,0
12.12.2019 01:00:00 3,6 3,6 - 13 7 18 10 S 1000,3 10 0,0
12.12.2019 00:00:00 3,4 3,4 - 11 6 14 8 S 1000,7 9 0,0
11.12.2019 23:00:00 3,2 3,2 - 13 7 18 10 S 1000,7 10 0,0
11.12.2019 22:00:00 3,7 3,7 - 15 8 18 10 S 1001,1 10 0,0
11.12.2019 21:00:00 4,2 4,2 - 13 7 18 10 S 1001,3 10 0,0
11.12.2019 20:00:00 4,1 4,1 - 15 8 25 14 S 1001,3 10 0,0
11.12.2019 19:00:00 4,2 4,2 - 16 9 22 12 S 1001,3 10 0,0
11.12.2019 18:00:00 3,8 3,8 - 15 8 22 12 S 1001,4 10 0,0
11.12.2019 17:00:00 4,0 4,0 - 16 9 25 14 S 1001,4 10 0,0
11.12.2019 16:00:00 4,8 4,7 - 22 12 29 16 S 1001,1 10 0,0
11.12.2019 15:00:00 5,7 5,3 - 21 11 32 18 S 1001,0 10 0,0
11.12.2019 14:00:00 6,1 5,8 - 24 13 36 19 SSW 1000,6 10 0,0
11.12.2019 13:00:00 6,3 6,0 - 24 13 36 19 SSW 1000,5 10 0,0
11.12.2019 12:00:00 6,2 5,9 - 28 15 40 21 SSW 1000,3 10 0,0
11.12.2019 11:00:00 5,8 5,7 - 26 14 32 18 SSW 1000,4 10 0,0
11.12.2019 10:00:00 5,3 5,3 - 26 14 32 18 SSW 999,5 10 0,0
11.12.2019 09:00:00 3,6 3,6 - 24 13 40 21 S 998,8 10 0,0
11.12.2019 08:00:00 3,2 3,1 - 31 17 47 25 S 997,8 10 0,6
11.12.2019 07:00:00 2,7 2,4 - 37 20 50 27 S 997,8 9 0,7
11.12.2019 06:00:00 3,0 3,0 - 39 21 - - S - 10 -
11.12.2019 05:00:00 2,9 2,5 - 46 25 68 37 S 997,1 9 0,9
11.12.2019 04:00:00 3,2 2,6 - 46 25 68 37 S 997,5 10 0,0
11.12.2019 03:00:00 3,0 2,4 - 46 25 65 35 S 998,8 10 0,0
11.12.2019 02:00:00 2,9 2,0 - 39 21 58 31 SSW 999,9 10 0,0
11.12.2019 01:00:00 2,6 1,3 - 42 23 58 31 S 1000,1 10 0,0
11.12.2019 00:00:00 2,7 0,9 - 39 21 54 29 S 1002,1 10 0,0
10.12.2019 23:00:00 2,6 1,0 - 31 17 43 23 S 1004,0 10 0,0
10.12.2019 22:00:00 2,0 0,8 - 31 17 43 23 S 1005,8 10 0,0
10.12.2019 21:00:00 1,7 0,8 - 31 17 40 21 SSE 1007,5 10 0,0
10.12.2019 20:00:00 1,5 0,8 - 31 17 40 21 SSE 1009,0 10 0,0
10.12.2019 19:00:00 0,9 0,0 - 24 13 32 18 SSE 1010,4 10 0,0
10.12.2019 18:00:00 0,5 -0,6 - 26 14 32 18 S 1011,5 10 0,0
10.12.2019 17:00:00 -0,2 -1,8 - 22 12 32 18 S 1012,9 10 0,0
10.12.2019 16:00:00 -0,4 -2,8 - 22 12 32 18 S 1014,1 10 0,0
10.12.2019 15:00:00 -0,3 -2,8 - 16 9 25 14 S 1014,9 10 0,0
10.12.2019 14:00:00 -0,4 -2,5 - 15 8 18 10 S 1015,8 10 0,0
10.12.2019 13:00:00 -1,0 -2,6 - 9 5 14 8 SSE 1016,0 10 0,0
10.12.2019 12:00:00 -1,4 -2,7 - 11 6 14 8 S 1016,6 10 0,0
10.12.2019 11:00:00 -2,0 -3,0 - 5 3 14 8 SSW 1016,2 10 0,0
10.12.2019 10:00:00 -2,9 -4,0 2,6 11 6 14 8 S 1015,8 10 0,0
10.12.2019 09:00:00 -1,9 -2,9 - 13 7 22 12 W 1015,5 10 0,0
10.12.2019 08:00:00 -1,8 -2,8 - 16 9 22 12 W 1014,7 10 0,0
10.12.2019 07:00:00 -2,3 -3,9 - 13 7 18 10 WNW 1013,5 10 0,0
10.12.2019 06:00:00 -2,1 -4,1 - 13 7 18 10 NW 1012,8 10 0,0
10.12.2019 05:00:00 -1,5 -3,5 - 11 6 25 14 NW 1011,8 10 0,0
10.12.2019 04:00:00 0,1 -2,8 - 16 9 25 14 N 1010,7 10 0,0
10.12.2019 03:00:00 -0,2 -2,9 - 13 7 36 19 NNW 1009,5 10 0,0
10.12.2019 02:00:00 0,3 -3,1 - 28 15 40 21 N 1008,0 10 0,0
10.12.2019 01:00:00 0,2 -3,2 - 31 17 40 21 N 1006,1 10 0,0
10.12.2019 00:00:00 0,5 -2,5 - 31 17 54 29 N 1004,0 10 0,0
09.12.2019 23:00:00 0,9 -2,2 - 39 21 54 29 N 1002,0 10 0,0
09.12.2019 22:00:00 1,2 -1,2 - 39 21 54 29 N 999,6 10 0,0
09.12.2019 21:00:00 1,4 -0,5 - 39 21 61 33 N 997,1 10 0,0
09.12.2019 20:00:00 0,9 0,8 - 44 24 65 35 N 994,1 6 0,1
09.12.2019 19:00:00 1,0 1,0 - 50 27 65 35 N 991,1 4,1 0,4
09.12.2019 18:00:00 1,2 1,1 - 46 25 68 37 N 988,7 8 0,3
09.12.2019 17:00:00 1,3 1,2 - 11 6 61 33 NNW 986,2 8 1,0
09.12.2019 16:00:00 5,1 4,7 - 11 6 18 10 S 983,9 10 0,0
09.12.2019 15:00:00 5,5 5,2 - 15 8 25 14 SSW 983,1 10 0,0
09.12.2019 14:00:00 5,7 5,7 - 18 10 36 19 SSW 982,6 10 0,1
09.12.2019 13:00:00 5,8 5,4 - 22 12 40 21 SSW 982,0 10 0,0
09.12.2019 12:00:00 5,9 5,0 - 31 17 47 25 SSW 981,7 10 0,0
09.12.2019 11:00:00 5,8 4,9 3,5 29 16 47 25 SSW 981,5 10 0,0
09.12.2019 10:00:00 5,7 5,0 3,5 31 17 47 25 SSW 981,1 10 0,0
09.12.2019 09:00:00 5,4 5,0 - 29 16 43 23 SSW 981,0 10 0,0
09.12.2019 08:00:00 5,5 5,1 - 35 19 43 23 SW 980,2 10 0,0
09.12.2019 07:00:00 5,6 5,2 - 31 17 43 23 SSW 979,8 10 0,0
09.12.2019 06:00:00 5,4 5,0 - 34 18 43 23 SSW 979,4 10 0,0
09.12.2019 05:00:00 5,2 4,9 - 34 18 43 23 SSW 979,0 10 0,0
09.12.2019 04:00:00 5,0 4,7 - 28 15 47 25 SSW 979,0 10 0,0
09.12.2019 03:00:00 5,3 5,0 - 34 18 50 27 SSW 978,8 10 0,0
09.12.2019 02:00:00 5,2 4,9 - 34 18 50 27 SSW 978,3 10 0,0
09.12.2019 01:00:00 5,3 5,0 - 34 18 47 25 SW 978,2 9 0,2
09.12.2019 00:00:00 5,2 4,9 - 35 19 50 27 SSW 978,0 10 0,0
08.12.2019 23:00:00 5,6 4,9 - 34 18 47 25 SW 978,0 10 0,0
08.12.2019 22:00:00 5,6 5,2 - 35 19 54 29 SW 977,7 10 0,0
08.12.2019 21:00:00 6,1 5,1 - 41 22 54 29 SW 977,4 10 0,0
08.12.2019 20:00:00 6,5 5,4 - 34 18 50 27 SW 977,4 10 0,0
08.12.2019 19:00:00 6,4 5,4 - 34 18 50 27 WSW 977,3 10 0,2
08.12.2019 18:00:00 6,3 5,4 - 28 15 54 29 WSW 977,4 10 0,0
08.12.2019 17:00:00 6,9 5,5 - 39 21 58 31 WSW 976,7 10 0,0
08.12.2019 16:00:00 7,5 6,3 - 39 21 58 31 WSW 976,1 10 0,0
08.12.2019 15:00:00 7,8 7,2 - 42 23 58 31 WSW 975,2 10 0,0
08.12.2019 14:00:00 8,3 8,2 - 39 21 58 31 SW 974,5 10 0,3
08.12.2019 13:00:00 8,3 8,3 - 39 21 54 29 SW 975,1 7 0,0
08.12.2019 12:00:00 8,2 8,1 - 41 22 50 27 SSW 976,2 6 0,1
08.12.2019 11:00:00 7,1 7,1 - 31 17 43 23 S 977,7 10 0,5
08.12.2019 10:00:00 6,0 6,0 - 31 17 - - S - 10 -
08.12.2019 09:00:00 4,5 4,5 - 24 13 32 18 SSE 982,3 8 0,7
08.12.2019 08:00:00 3,1 3,1 - 22 12 32 18 SE 984,5 10 0,4
08.12.2019 07:00:00 2,4 2,4 - 21 11 29 16 SE 987,2 8 0,6
08.12.2019 06:00:00 1,8 1,8 - 16 9 22 12 SSE 990,0 7 0,5
08.12.2019 05:00:00 1,6 1,3 - 15 8 22 12 S 992,0 10 0,0
08.12.2019 04:00:00 0,8 0,2 - 15 8 18 10 S 993,5 10 0,0
08.12.2019 03:00:00 -0,4 -0,7 - 13 7 14 8 SSW 995,0 10 0,0
08.12.2019 02:00:00 -0,3 -0,9 - 11 6 18 10 SSW 996,1 10 0,0
08.12.2019 01:00:00 -0,1 -0,9 - 15 8 22 12 SSW 997,0 10 0,0
08.12.2019 00:00:00 0,4 -0,9 - 16 9 22 12 SSW 997,1 10 0,0
07.12.2019 23:00:00 0,4 -0,7 - 11 6 18 10 S 997,2 10 0,0
07.12.2019 22:00:00 1,7 -0,1 - 15 8 22 12 WSW 997,8 10 0,0
07.12.2019 21:00:00 2,3 -0,3 - 13 7 22 12 W 997,3 10 0,0
07.12.2019 20:00:00 2,3 -0,1 - 16 9 25 14 W 996,9 10 0,0
07.12.2019 19:00:00 2,5 0,4 - 18 10 25 14 W 996,4 10 0,0
07.12.2019 18:00:00 2,8 0,4 - 18 10 40 21 WNW 995,8 10 0,0
07.12.2019 17:00:00 3,4 1,0 - 28 15 36 19 W 994,8 10 0,0
07.12.2019 16:00:00 3,8 1,8 - 26 14 36 19 W 993,7 10 0,0
07.12.2019 15:00:00 4,2 2,1 - 29 16 40 21 W 992,6 10 0,0
07.12.2019 14:00:00 4,8 3,1 - 26 14 36 19 W 991,5 10 0,0
07.12.2019 13:00:00 5,0 3,5 - 28 15 36 19 W 990,8 10 0,0
07.12.2019 12:00:00 4,9 4,3 - 26 14 32 18 W 990,2 10 0,0
07.12.2019 11:00:00 4,4 4,3 - 22 12 40 21 W 989,9 10 0,0
07.12.2019 10:00:00 5,4 4,7 - 29 16 40 21 W 988,9 10 0,0
07.12.2019 09:00:00 5,8 5,5 - 28 15 36 19 W 987,6 10 0,0
07.12.2019 08:00:00 6,2 6,2 - 11 6 18 10 WSW 986,4 2,4 0,1
07.12.2019 07:00:00 6,2 6,2 - 15 8 22 12 SW 986,1 10 0,0
07.12.2019 06:00:00 6,6 6,6 - 21 11 32 18 WSW 985,9 10 0,0
07.12.2019 05:00:00 7,3 7,2 - 28 15 43 23 W 985,4 10 0,1
07.12.2019 04:00:00 8,2 8,2 - 22 12 29 16 SW 984,8 4,6 0,0
07.12.2019 03:00:00 8,1 8,1 - 21 11 32 18 SSW 985,2 9 0,0
07.12.2019 02:00:00 8,1 8,1 - 24 13 36 19 SSW 985,7 7 0,2
07.12.2019 01:00:00 7,9 7,9 - 24 13 32 18 SSW 986,1 4,2 0,0
07.12.2019 00:00:00 7,6 7,6 - 24 13 32 18 S 986,9 8 0,1
06.12.2019 23:00:00 7,8 7,8 - 24 13 32 18 S 987,7 10 1,0
06.12.2019 22:00:00 8,4 8,4 - 22 12 32 18 SSW 988,2 10 0,7
06.12.2019 21:00:00 8,9 8,9 - 26 14 36 19 SSW 988,8 10 0,0
06.12.2019 20:00:00 9,1 9,1 - 26 14 36 19 SSW 989,1 10 0,0
06.12.2019 19:00:00 8,9 8,9 - 21 11 29 16 SSW 989,7 8 0,0
06.12.2019 18:00:00 8,1 8,1 - 18 10 25 14 SSW 989,9 5 0,2
06.12.2019 17:00:00 7,5 7,5 - 13 7 22 12 SSW 990,6 5 0,6
06.12.2019 16:00:00 7,5 7,1 - 22 12 29 16 SW 991,1 10 0,0

tt = temperature
td = dewpoint
tw = water temperature
ff = wind speed
fx = gusts
dd = wind direction
ppp = reduced air pressure
vv = visibility
rr = precipitation

Next stations